Погода Агинское

Погода Агинское : погода сейчас, прогноз погоды и архив. Всё, что Вы хотите узнать о погоде Агинское!

Хотите узнать прогноз погоды Агинское? Тогда Вам сюда: Погода Агинское

Поиск расширенной информации на нашем сайте:

Другие новости

Новости СМИ2

Главная страница сайта

Новости сайта

03.07.2017

Напоминаем, что на нашем специализированном сайте Метеоцентр.Азия вы можете получить высокодетализированные автоматические прогнозы погоды по пунктам России, СНГ и мира в авиационном формате (включающие направление и скорость ветра, видимость, явления погоды, количество и форму облачности, нижнюю и верхнюю границу облачности).


Погода Агинское - сегодня

Время (UTC), дата Ветер
(°,м/с) 
Видим.   Явления Облачность Т
(°С)
Тd
(°С)
f(%) Тe
(°С)
Pmin
(гПа)
dP
(гПа)
Po
(мм)
O2
(г/м3)
Тmin Tmax R s Состояние
почвы
09 15.10.18 080 (В) 20000 м    ясно 
+8.1 -8 31 +7  1026  -0.5  709  278           
12 15.10.18 тихо ()   20000 м    ясно 
-0.5 -6.5 64 -1  1029.8  1.1  710  287    +9.9       
15 15.10.18 290 (З) 20000 м    ясно 
-5 -7.9 80 -5  1032.1  0.8  710  292           
18 15.10.18 260 (З) 20000 м    ясно 
-7.4 -9.2 87 -7  1033.1  0.1  710  295           
21 15.10.18 270 (З) 20000 м    ясно 
-7.9 -9.4 89 -8  1033.1  -0.2  710  296           
03 16.10.18 тихо ()   20000 м    ясно 
+4.8 -6.3 44 +5  1029.1  -0.4  710  282           
06 16.10.18 040 (СВ) 20000 м    1/0 верхняя 
[Ci fib]
+10.2 -8.7 25 +10  1025.7  -1.6  709  276           
09 16.10.18 080 (В) 20000 м    1/0 верхняя 
[Ci fib]
+9 -9.8 25 +10  1025.3  -0.7  709  277           
12 16.10.18 260 (З) 20000 м    ясно 
-2.2 -7.9 65 -3  1029.6  0.8  709  289    +10.5       
15 16.10.18 270 (З) 20000 м    ясно 
-5.8 -8.5 81 -7  1031  0.2  709  293           
18 16.10.18 230 (ЮЗ) 20000 м    ясно 
-8.1 -9.9 87 -8  1031.3  -0.4  709  295           
21 16.10.18 220 (ЮЗ) 20000 м    ясно 
-9.5 -11 89 -9  1031.3  -0.5  709  297           
03 17.10.18 070 (В) 20000 м    4/0 верхняя 
[Ci fib]
+4.3 -6.2 46 +4  1025.8  -1  708  281           
06 17.10.18 120 (ЮВ) 20000 м    1/0 верхняя 
[Ci fib]
+11.2 -7.4 26 +11  1021.8  -1.8  707  274           
09 17.10.18 130 (ЮВ) 20000 м    ясно 
+10.7 -6 30 +12  1021.4  -0.5  706  274           
12 17.10.18 300 (СЗ) 20000 м    ясно 
-1 -5.6 71 -2  1026.4  1.3  707  287    +12.4       
15 17.10.18 270 (З) 20000 м    ясно 
-3 -6.3 78 -4  1027.6  0.5  708  289           
18 17.10.18 270 (З) 20000 м    ясно 
-5.6 -7.5 86 -7  1028.5  0.1  708  292           
21 17.10.18 260 (З) 20000 м    ясно 
-6.5 -8.1 88 -6  1028.9  0.1  708  293           
03 18.10.18 270 (З) 20000 м    5/0 верхняя 
[Ci fib]
+6.4 -3 51 +7  1024.3  -0.7  707  279           
06 18.10.18 200 (Ю) 20000 м    6/0 верхняя 
[Ci fib]
+15.7 -4.9 24 +17  1019.2  -2.2  706  269           
09 18.10.18 210 (ЮЗ) 20000 м    3/0 верхняя 
[Ci fib]
+13 -4.6 29 +13  1019  -0.9  705  272           
15 18.10.18 280 (З) 20000 м    ясно 
-1.8 -5.2 78 -3  1025.6  0.8  707  287           
18 18.10.18 260 (З) 20000 м    ясно 
-3.3 -5.9 82 -3  1026  0.1  707  289           
21 18.10.18 280 (З) 20000 м    ясно 
-4.4 -6.9 83 -6  1026.5  0.1  707  290           
Время (UTC), дата Ветер
(°,м/с) 
Видим.   Явления Облачность Т
(°С)
Тd
(°С)
f(%) Тe
(°С)
Pmin
(гПа)
dP
(гПа)
Po
(мм)
O2
(г/м3)
Тmin Tmax R s Состояние
почвы

Для получения пояснительной информации подведите курсор к названию столбца.

ПОГОДА Агинское - архив

Всё, что Вы хотите узнать о погоде Агинское - удобно и подробно!

Выберите нужную дату (начиная с 1 января 2015* года) и нажмите кнопку "Найти".
Будут отображены архивные сводки погоды по пункту Агинское, начиная с указанной даты.


Отображать данные в формате CSV (для использования в таблицах Excel)


Внимание! Наш архив погоды предназначен исключительно для личного некоммерческого использования в познавательных целях. Если Вам необходимы официальные справки о состоянии погоды (для производственных, юридических, коммерческих и т.п. целей), обращайтесь в органы Росгидромета.

*Примечание: данная дата относится к архиву по метеостанциям СССР (Россия, СНГ, Балтия).
Архив по метеостанциям Зарубежной Европы и Азии (кроме Китая) хранится 10 дней, по другим регионам земного шара (Китай, Африка, Америка, Австралия, Океания) - 1 день.

Агинское - район местоположения метеостанции


Название, широта, долгота, высота метеостанции:
Агинское 51.1°ш. 114.5°д. 681 м над ур. моря [Российская Федерация]

Дополнительная информация

В oтличие oт бoльшинства пoгoдных сайтoв мы публикуем пoдрoбную метеoинфoрмацию в детальнoм прoфессиoнальнoм фoрмате.

Характеристики температуры и влажнoсти вoздуха измеряются на высoте 2 м в тени вдали oт зданий и деревьев.
Скoрoсть ветра измеряется на высoте 10 м (на урoвне рoста челoвека скoрoсть ветра ниже в 1.5-2 раза). Если метеoстанция нахoдится в гoрoде или в лесу, тo скoрoсть ветра занижена на 2-4 м/с пo сравнению с oткрытым местoм. Скoрoсть ветра над акватoриями крупных рек и oзёр, а также на вершинах хoлмoв на 2-5 м/с выше, чем в oбычных услoвиях.
Атмoсфернoе давление в разных тoчках местнoсти мoжет значительнo oтличаться oт давления на метеoстанции, в зависимoсти oт услoвий рельефа (при пoдъёме на 10 м давление пoнижается примернo на 1 мм рт.ст.).